LIBERTAD 1

Satellite information

Favourite Embed

Satellite Type and Status

PAYLOADIN ORBIT

Key statistics

Satellite LIBERTAD 1 at a glance.

Uptime

6816

Days in orbit

Revolutions

≈ 14.6

Per day

Orbit

SSO

Sun Synchronous Orbit

Inclination

98.4

Latest

Satellite identification and parameters

Extended collection of information and parameters for LIBERTAD 1.

Object identification

Identified? True

Debris? False

Object name: LIBERTAD 1

International designator: 2007-012M

Object number (NORAD): 31128

Object ID (CCSDS): 31128

Country: COLOMBIA (COL)

Current information (Y/N): Y

RCS size: SMALL

Orbital parameters

Period: 98.416 minutes

Inclination: 98.415 deg

SMA: 7061.088 km

Apoapsis: 742.787 km

Periapsis: 623.12 km

RAAN: 306.6765 deg

Eccentricy: 0.00847374

Argument of periapsis: 304.9216 deg

Mean anomaly: 54.4044 deg

Mean motion: 14.63171701 rev/day

Mean motion (dot): 0.00003228 rev/day2

B* drag term: 0.00060577175 1/REarth

Two-line elements (TLE)

Creation date: Dec. 12, 2025, 3:16 a.m.

Reference frame: TEME

Reference center: EARTH

Epoch: Dec. 11, 2025, 9:10 p.m. UTC

TLE line 0: 0 LIBERTAD 1

TLE line 1: 1 31128U 07012M 25345.88220858 .00003228 00000-0 60577-3 0 9998

TLE line 2: 2 31128 98.4150 306.6765 0084737 304.9216 54.4044 14.63171701990955

Live tracking on map

Real-time ground track for satellite LIBERTAD 1.

In-orbit conjunctions

A list of the most updated potential collisions computed for object LIBERTAD 1.

Target Orbit TCA Probability of collision Miss distance Type
CZ-4 DEB SSO 2025-06-04 05:59:29 0.0001937718 254.0 (m) DEBRIS
CZ-2D DEB SSO 2025-02-10 18:50:36 0.002793124 137.0 (m) DEBRIS
CZ-6A DEB SSO 2024-06-06 06:01:47 0.0004161848 826.0 (m) DEBRIS

Associated space launch

Rideshare mission with Egyptian and Saudi Arabian Earth observation satellites as well as 14 American cubesats

LIBERTAD 1 was lifted into orbit during the mission ‘Dnepr | EgyptSat 1 & Saudisat 3’, on board a Dnepr space rocket.

The launch took place on April 17, 2007, 6:46 a.m. from 109/95.

For more information about the launch, click the button.

Launch to space Dnepr | EgyptSat 1 & Saudisat 3
Dnepr | EgyptSat 1 & Saudisat 3

Agency: N/A

Status: Launch Successful

Launch date: April 17, 2007, 6:46 a.m. UTC

Rocket: Dnepr

Launch pad: 109/95

Location: Baikonur Cosmodrome, Republic of Kazakhstan

...

Latest news about this satellite

There are no fresh news available about this satellite. Check back as we update our databases every day.


Newsletter sign-up

Weekly statistics, charts and insights to help you stay on top of the space industry.